Other Public Products
Issued by NWS Grand Forks, ND

Home | Current Version | Previous Version | Graphics & Text | Print | Product List | Glossary On
Versions: 1 2 3 4 5 6 7 8 9 10 11 12 13 14 15 16 17 18 19 20 21 22 23 24 25 26 27 28 29 30 31 32 33 34 35 36 37 38 39 40 41 42 43 44 45 46 47 48 49 50
000
FPUS83 KFGF 242231
OPUFGF
PRAIRIE TO PINES WEATHER ROUNDUP
NATIONAL WEATHER SERVICE EASTERN NORTH DAKOTA/GRAND FORKS ND
500 PM CDT SUN SEP 24 2017

 **SATELLITE DATA USED TO AUGMENT SKY COVER AT AUTOMATED STATIONS**
 *****  WEATHER ACROSS EASTERN NORTH DAKOTA  *****

CITY           SKY/WX    TMP DP  RH WIND       PRES   REMARKS
GRAND FORKS    LGT RAIN  53  52  96 N15G26    29.90R
GRAND FORKS AF CLOUDY    54  54 100 N15G22    29.91F
GRAND CITY NWS NOT AVBL
BUXTON           N/A     52  52  99 NW12        N/A
DEVILS LAKE    CLOUDY    48  46  93 N15       29.98S
FARGO          CLOUDY    54  53  97 N15       29.90R FOG
WAHPETON ARPT  CLOUDY    55  52  88 NW13      29.92R
$$

 *****  WEATHER ACROSS CENTRAL AND WESTERN NORTH DAKOTA  *****

CITY           SKY/WX    TMP DP  RH WIND       PRES   REMARKS
JAMESTOWN      CLOUDY    51  47  86 NW17      29.96R
BISMARCK       CLOUDY    52  47  83 N13G18    30.04S
MINOT          CLOUDY    50  45  83 NW10      30.05S
MINOT AFB      CLOUDY    50  44  81 NW14      30.04S
GARRISON         N/A     50  44  80 NW15      30.06R
WILLISTON      LGT RAIN  48  41  76 N5        30.12R
DICKINSON      CLOUDY    45  43  93 NW10      30.08R FOG
HETTINGER      CLOUDY    47  42  83 NW13      30.09S
$$

 *****  OTHER OBSERVATIONS NORTHEAST NORTH DAKOTA  *****

CITY           SKY/WX    TMP DP  RH WIND       PRES   REMARKS
WALHALLA       FAIR     N/A N/A N/A NW15      29.94F
LANGDON        NOT AVBL
CAVALIER       CLOUDY    50  50 100 N16G23    29.91F FOG
GRAFTON        NOT AVBL
CANDO          CLOUDY    48  48 100 N15       30.01S
FORT TOTTEN      N/A     49  48  95 N7        29.95
ROLLA          CLOUDY    46  46 100 N15       30.02R
RUGBY          NOT AVBL
 ***** THE ABOVE OBSERVATIONS ARE NON NWS ARE NOT QUALITY
        CONTROLLED AND MAY MIS-REPORT RAIN FOR SNOW...
$$

 *****  OTHER OBSERVATIONS SOUTHEAST NORTH DAKOTA *****

CITY           SKY/WX    TMP DP  RH WIND       PRES   REMARKS
COOPERSTOWN    MOCLDY    52  48  87 N20G26    29.92F
VALLEY CITY    NOT AVBL
OAKES          NOT AVBL
GWINNER        CLOUDY    54  52  94 NW12      29.94R
SHEYENNE NWR     N/A     55  55  98 N7        29.95S
BUFFALO          N/A     53  51  92 SW9G21      N/A
WYNDMERE       NOT AVBL
 ***** THE ABOVE OBSERVATIONS ARE NON NWS ARE NOT QUALITY
       CONTROLLED AND MAY MIS-REPORT RAIN FOR SNOW...
$$

  *****  WEATHER ACROSS NORTHERN MINNESOTA  *****

CITY           SKY/WX    TMP DP  RH WIND       PRES   REMARKS
FLAG ISLAND    DRIZZLE   55  55 100 NW10      29.80F
WARROAD        DRIZZLE   55  52  88 NW10      29.83
ROSEAU         DRIZZLE   55  50  82 NW12      29.84S
HALLOCK        LGT RAIN  52  52 100 NW17G23   29.90R
THF RVR FALLS  LGT RAIN  55  53  93 NW14      29.86R
HALSTAD          N/A     53  52  97 NW16        N/A
FOSSTON        DRIZZLE   55  55 100 W9        29.86R
BAUDETTE       CLOUDY    60  60 100 NW7       29.80S
WASKISH        CLOUDY    64  63  94 W8        29.81R FOG
CROOKSTON      LGT RAIN  52  52 100 NW18G26   29.90R
$$
  *****  WEATHER ACROSS CENTRAL AND WEST MINNESOTA  *****

CITY           SKY/WX    TMP DP  RH WIND       PRES   REMARKS
BEMIDJI        CLOUDY    68  64  85 W8        29.82S
PARK RAPIDS    LGT RAIN  70  65  84 SW12G21   29.82F
WADENA         FAIR      66  66 100 W10       29.85R
DETROIT LAKES  CLOUDY    57  55  94 W7        29.88R
MOORHEAD       CLOUDY    54  52  94 NW12      29.91R FOG
FERGUS FALLS   CLOUDY    57  57 100 W16       29.90R
ELBOW LAKE     CLOUDY    60  60  99 NW12      29.89R
MORRIS MN      NOT AVBL
STAPLES        FAIR      68  66  94 W8        29.84R
WHEATON        PTSUNNY   57  54  88 W13G21    29.93R
$$
  *****  WEATHER ELSEWHERE ACROSS MINNESOTA  *****

CITY           SKY/WX    TMP DP  RH WIND       PRES   REMARKS
DULUTH         FAIR      77  67  71 S8        29.86F
INTRNTL FALLS  TSTM      71  67  87 W6        29.77S VSB 1
ELY            FAIR      79  64  61 S10       29.84F
CLOQUET        LGT RAIN  81  63  54 S9        29.85F
BRAINERD       PTSUNNY   66  66 100 S3        29.83S
HIBBING        FAIR      79  64  60 S8        29.82F
ALEXANDRIA     FAIR      68  65  90 W6        29.87F
SAINT CLOUD    FAIR      83  66  56 S14       29.81F
MINNEAPOLIS    PTSUNNY   90  62  39 S15G25    29.84F HX  90
$$

  *****  WEATHER ACROSS SOUTH DAKOTA  *****

CITY           SKY/WX    TMP DP  RH WIND       PRES   REMARKS
SIOUX FALLS    CLOUDY    63  58  83 NW12      29.92S
BROOKINGS      CLOUDY    58  55  90 NW15      29.93R
WATERTOWN      CLOUDY    56  54  93 W10       29.92S
HURON          CLOUDY    56  53  90 NW12      29.96R
SISSETON         N/A     58  55  90 NW15      29.89S
ABERDEEN       CLOUDY    55  51  86 NW15      29.95S
MITCHELL       PTSUNNY   58  54  86 NW9       29.96S
PIERRE         CLOUDY    55  47  74 N16       29.99F
MOBRIDGE       CLOUDY    54  47  77 N13       30.00R
RAPID CITY     CLOUDY    52  43  71 N18       30.05S
$$

  *****  SOME WEATHER IN NEARBY STATES *****

CITY           SKY/WX    TMP DP  RH WIND       PRES   REMARKS
GLASGOW MT     CLOUDY    53  36  52 W3        30.10F
GREAT FALLS MT PTSUNNY   57  25  29 NW7       30.05F
CHEYENNE WY    LGT RAIN  43  41  93 E10       30.01S FOG
SCOTTSBLUFF NE CLOUDY    53  43  68 E13       30.02S
OMAHA NE       PTSUNNY   74  68  81 NE6       29.87R
DES MOINES IA  FAIR      90  61  37 SE16      29.89F HX  90
DAVENPORT IA   FAIR      87  62  43 S7        29.98F
CHICAGO IL     FAIR      91  56  30 S13       30.00S
EAU CLAIRE WI  FAIR      87  60  40 S15       29.90F
LA CROSSE WI   FAIR      91  61  36 S15       29.91F HX  91
$$

  *****  SOME NATIONAL WEATHER *****

CITY           SKY/WX    TMP DP  RH WIND       PRES   REMARKS
LA GUARDIA NY  FAIR      86  65  49 S9        30.01R
RALEIGH NC     CLOUDY    83  59  44 E8        30.00S
ATLANTA GA     FAIR      82  64  54 E10       30.01F
NEW ORLEANS LA FAIR      87  67  51 E10       29.88S HX  90
OKLAHOMA CITY  PTSUNNY   85  60  42 S14G21    29.87F
ALBUQUERQUE NM FAIR      74  21  13 VRB5      29.90F
SALT LAKE CITY RAIN      44  42  93 SE7       30.06R FOG
LOS ANGELES CA FAIR      73  55  53 W15       29.85F
BOISE ID       FAIR      67  28  23 NW17G26   30.00S
SEATTLE WA     FAIR      70  49  47 SW7       30.12F
$$

*** WEATHER ACROSS MANITOBA...SASKATCHEWAN AND ONTARIO ***
                ***ONTARIO***

CITY           SKY/WX    TMP DP  RH WIND       PRES   REMARKS
GERALDTON      PTSUNNY   79  66  65 SW10      29.88S
THUNDER BAY    PTSUNNY   70  64  83 NE9       29.87F
SIOUX LOOKOUT  CLOUDY    64  63  94 SW5       29.79F FOG
TORONTO        MOSUNNY   88  64  45 S6        30.07F
BIG TROUT LK   LGT RAIN  46  46 100 NE8G18    29.98F
PICKLE LAKE    LGT RAIN  52  52 100 E9        29.83F FOG
DRYDEN         LGT RAIN  63  63 100 W3        29.78F FOG
KENORA         LGT RAIN  55  55 100 N5        29.80S FOG
$$
                *** MANITOBA***

CITY           SKY/WX    TMP DP  RH WIND       PRES   REMARKS
BRANDON        CLOUDY    50  45  81 N9        30.04R
DAUPHIN        CLOUDY    50  46  87 N13       30.05S
ISLAND LAKE    LGT RAIN  45  43  93 N10       30.06S
PILOT MOUND      N/A     48  46  93 N14         N/A
THE PAS        MOSUNNY   52  41  66 E7        30.10F
THOMPSON       CLOUDY    45  36  70 NE3       30.15S
WINNIPEG       LGT RAIN  50  48  93 NW13G21   29.94R
LYNN LAKE      SUNNY     46  37  71 S5        30.14S
CHURCHILL      PTSUNNY   41  28  60 CALM      30.21F
GILLAM         CLOUDY    43  34  70 N9        30.16F
$$
                ***SASKATCHEWAN***

CITY           SKY/WX    TMP DP  RH WIND       PRES   REMARKS
ESTEVAN        CLOUDY    50  41  71 N6        30.09S
KINDERSLEY     MOSUNNY   59  34  38 VRB10G20  30.04F
LLOYDMINSTER   CLOUDY    55  37  50 S10       30.01F
PRINCE ALBERT  PTSUNNY   55  37  50 SW3       30.10S
REGINA         PTSUNNY   55  30  38 NW6       30.08F
YORKTON        CLOUDY    54  39  58 NW12      30.08R



USA.gov is the U.S. government's official web portal to all federal, state and local government web resources and services.